sat.trackr.live / text

‹ back to catalog

STARLINK-30912

NORAD 58422 · 2023-180W

PAYLOAD ACTIVE UNKNOWN

§ Identity

Operator
Country
US
Launch date
2023-11-22
Launch site
AFETR
Launch vehicle
Mass (kg)
RCS (m²)

Purposes: comms

External: N2YO · Heavens-Above · Gunter

§ Orbital elements

Epoch: 2026-09-20T23:20:02.989248Z

Period
94.27 min
Inclination
43.0027°
Eccentricity
0.0001424
Mean motion
15.27576182 rev/d
Perigee alt
482.1 km
Apogee alt
484.0 km
Semi-major
6,861.2 km
B*
8.8357e-6
RAAN
247.4479°
Arg perigee
271.1782°
Mean anomaly
88.8906°
Rev number
15,916

§ Raw data

STARLINK-309121 58422U 23180W   26263.97225682 -.00000019  00000+0  88357-5 0  99912 58422  43.0027 247.4479 0001424 271.1782  88.8906 15.27576182159160

JSON: /api/v1/satellites/58422 · /tle

For live sub-satellite position, see the globe view (requires WebGL).

§ Visibility from observer

Set your observer location to see the next 7 days of passes ≥ 10°. The values pass through the URL so the page stays shareable.

No JS? Fill the form by hand. The geolocation button needs JavaScript.